Stündliche Wetter Cavtat

Heute, 31 Oktober, Samstag

Zeit Temperatur Niederschläge Wind Luftdruck Luftfeuchtigkeit
00:00 +13°C° 0 mm 3 m/S 759 mmHg 67%
01:00 +13°C° 0 mm 3 m/S 758 mmHg 67%
02:00 +13°C° 0 mm 3 m/S 758 mmHg 67%
03:00 +13°C° 0 mm 3 m/S 758 mmHg 68%
04:00 +14°C° 0 mm 2 m/S 758 mmHg 68%
05:00 +14°C° 0 mm 2 m/S 758 mmHg 69%
06:00 +14°C° 0 mm 2 m/S 758 mmHg 71%
07:00 +14°C° 0 mm 1 m/S 758 mmHg 72%
08:00 +16°C° 0 mm 1 m/S 758 mmHg 67%
09:00 +19°C° 0 mm 1 m/S 758 mmHg 62%
10:00 +21°C° 0 mm 1 m/S 758 mmHg 57%
11:00 +21°C° 0 mm 1 m/S 757 mmHg 57%
12:00 +21°C° 0 mm 2 m/S 757 mmHg 57%
13:00 +21°C° 0 mm 2 m/S 757 mmHg 56%
14:00 +20°C° 0 mm 2 m/S 757 mmHg 62%
15:00 +19°C° 0 mm 2 m/S 756 mmHg 67%
16:00 +19°C° 0 mm 2 m/S 756 mmHg 73%
17:00 +18°C° 0 mm 2 m/S 756 mmHg 73%
18:00 +17°C° 0 mm 3 m/S 757 mmHg 74%
19:00 +16°C° 0 mm 3 m/S 757 mmHg 75%
20:00 +16°C° 0 mm 2 m/S 757 mmHg 74%
21:00 +16°C° 0 mm 2 m/S 757 mmHg 74%
22:00 +16°C° 0 mm 2 m/S 757 mmHg 74%
23:00 +15°C° 0 mm 2 m/S 757 mmHg 73%

Morgen, 1 November, Sonntag

Zeit Temperatur Niederschläge Wind Luftdruck Luftfeuchtigkeit
00:00 +15°C° 0 mm 2 m/S 757 mmHg 72%
01:00 +15°C° 0 mm 2 m/S 757 mmHg 71%
02:00 +15°C° 0 mm 2 m/S 757 mmHg 71%
03:00 +14°C° 0 mm 2 m/S 757 mmHg 70%
04:00 +14°C° 0 mm 2 m/S 756 mmHg 70%
05:00 +14°C° 0 mm 2 m/S 757 mmHg 71%
06:00 +14°C° 0 mm 2 m/S 757 mmHg 71%
07:00 +14°C° 0 mm 2 m/S 757 mmHg 72%
08:00 +16°C° 0 mm 2 m/S 757 mmHg 67%
09:00 +19°C° 0 mm 1 m/S 757 mmHg 62%
10:00 +21°C° 0 mm 1 m/S 757 mmHg 58%
11:00 +21°C° 0 mm 1 m/S 757 mmHg 58%
12:00 +22°C° 0 mm 1 m/S 756 mmHg 59%
13:00 +21°C° 0 mm 2 m/S 756 mmHg 59%
14:00 +21°C° 0 mm 1 m/S 756 mmHg 66%
15:00 +20°C° 0 mm 1 m/S 756 mmHg 72%
16:00 +19°C° 0 mm 1 m/S 756 mmHg 79%
17:00 +18°C° 0 mm 1 m/S 756 mmHg 80%
18:00 +16°C° 0 mm 0 m/S 756 mmHg 81%
19:00 +15°C° 0 mm 0 m/S 756 mmHg 82%
20:00 +15°C° 0 mm 0 m/S 757 mmHg 81%
21:00 +15°C° 0 mm 0 m/S 757 mmHg 80%
22:00 +15°C° 0 mm 0 m/S 757 mmHg 79%
23:00 +14°C° 0 mm 0 m/S 757 mmHg 79%

übermorgen, 2 November, Montag

Zeit Temperatur Niederschläge Wind Luftdruck Luftfeuchtigkeit
00:00 +14°C° 0 mm 0 m/S 757 mmHg 79%
01:00 +15°C° 0 mm 1 m/S 757 mmHg 79%
02:00 +15°C° 0 mm 1 m/S 757 mmHg 79%
03:00 +14°C° 0 mm 1 m/S 757 mmHg 78%
04:00 +14°C° 0 mm 1 m/S 757 mmHg 78%
05:00 +14°C° 0 mm 1 m/S 757 mmHg 78%
06:00 +14°C° 0 mm 1 m/S 757 mmHg 77%
07:00 +14°C° 0 mm 1 m/S 758 mmHg 77%
08:00 +16°C° 0 mm 1 m/S 758 mmHg 73%
09:00 +19°C° 0 mm 1 m/S 758 mmHg 69%
10:00 +20°C° 0 mm 1 m/S 758 mmHg 65%
11:00 +20°C° 0 mm 1 m/S 758 mmHg 65%
12:00 +21°C° 0 mm 1 m/S 758 mmHg 65%
13:00 +21°C° 0 mm 1 m/S 758 mmHg 66%
14:00 +20°C° 0 mm 1 m/S 757 mmHg 71%
15:00 +19°C° 0 mm 2 m/S 757 mmHg 77%
16:00 +18°C° 0 mm 2 m/S 757 mmHg 82%
17:00 +17°C° 0 mm 2 m/S 757 mmHg 83%
18:00 +17°C° 0 mm 2 m/S 758 mmHg 85%
19:00 +16°C° 0 mm 1 m/S 758 mmHg 86%
20:00 +16°C° 0 mm 1 m/S 758 mmHg 85%
21:00 +16°C° 0 mm 1 m/S 758 mmHg 83%
22:00 +16°C° 0 mm 1 m/S 758 mmHg 81%
23:00 +16°C° 0 mm 1 m/S 758 mmHg 80%

3 November, Dienstag

Zeit Temperatur Niederschläge Wind Luftdruck Luftfeuchtigkeit
00:00 +16°C° 0 mm 1 m/S 757 mmHg 79%
01:00 +16°C° 0 mm 1 m/S 757 mmHg 77%
02:00 +16°C° 0 mm 1 m/S 757 mmHg 76%
03:00 +16°C° 0 mm 1 m/S 757 mmHg 75%
04:00 +16°C° 0 mm 1 m/S 757 mmHg 74%
05:00 +16°C° 0 mm 1 m/S 757 mmHg 74%
06:00 +16°C° 0 mm 1 m/S 757 mmHg 74%
07:00 +16°C° 0 mm 1 m/S 757 mmHg 74%
08:00 +19°C° 0 mm 1 m/S 757 mmHg 70%
09:00 +20°C° 0 mm 1 m/S 757 mmHg 66%
10:00 +22°C° 0 mm 1 m/S 757 mmHg 62%
11:00 +22°C° 0 mm 1 m/S 757 mmHg 63%
12:00 +23°C° 0 mm 2 m/S 757 mmHg 63%
13:00 +22°C° 0 mm 3 m/S 757 mmHg 64%
14:00 +21°C° 0 mm 3 m/S 756 mmHg 69%
15:00 +20°C° 0 mm 3 m/S 756 mmHg 74%
16:00 +20°C° 0 mm 3 m/S 756 mmHg 80%
17:00 +19°C° 0 mm 3 m/S 756 mmHg 80%
18:00 +18°C° 0 mm 3 m/S 757 mmHg 81%
19:00 +18°C° 0 mm 3 m/S 757 mmHg 82%
20:00 +18°C° 0 mm 2 m/S 757 mmHg 81%
21:00 +18°C° 0 mm 2 m/S 757 mmHg 79%
22:00 +17°C° 0 mm 2 m/S 757 mmHg 78%
23:00 +17°C° 0 mm 2 m/S 757 mmHg 78%

4 November, Mittwoch

Zeit Temperatur Niederschläge Wind Luftdruck Luftfeuchtigkeit
00:00 +17°C° 0 mm 2 m/S 757 mmHg 77%
01:00 +17°C° 0 mm 2 m/S 757 mmHg 76%
02:00 +17°C° 0 mm 2 m/S 757 mmHg 77%
03:00 +16°C° 0 mm 1 m/S 756 mmHg 77%
04:00 +16°C° 0 mm 1 m/S 756 mmHg 77%
05:00 +16°C° 0 mm 1 m/S 757 mmHg 77%
06:00 +16°C° 0 mm 1 m/S 757 mmHg 77%
07:00 +16°C° 0 mm 1 m/S 757 mmHg 77%
08:00 +19°C° 0 mm 1 m/S 757 mmHg 73%
09:00 +20°C° 0 mm 1 m/S 757 mmHg 68%
10:00 +22°C° 0 mm 1 m/S 757 mmHg 64%
11:00 +22°C° 0 mm 1 m/S 757 mmHg 64%
12:00 +23°C° 0 mm 1 m/S 757 mmHg 64%
13:00 +23°C° 0 mm 1 m/S 756 mmHg 64%
14:00 +22°C° 0 mm 1 m/S 756 mmHg 70%
15:00 +21°C° 0 mm 1 m/S 757 mmHg 76%
16:00 +20°C° 0 mm 1 m/S 757 mmHg 82%
17:00 +20°C° 0 mm 1 m/S 757 mmHg 83%
18:00 +20°C° 0 mm 1 m/S 757 mmHg 84%
19:00 +19°C° 0 mm 1 m/S 758 mmHg 85%
20:00 +19°C° 0 mm 1 m/S 758 mmHg 85%
21:00 +19°C° 0 mm 1 m/S 758 mmHg 84%
22:00 +19°C° 0 mm 1 m/S 759 mmHg 84%
23:00 +19°C° 0 mm 1 m/S 759 mmHg 83%

5 November, Donnerstag

Zeit Temperatur Niederschläge Wind Luftdruck Luftfeuchtigkeit
00:00 +19°C° 0 mm 1 m/S 759 mmHg 83%
01:00 +19°C° 0 mm 1 m/S 759 mmHg 83%
02:00 +18°C° 0 mm 1 m/S 759 mmHg 83%
03:00 +18°C° 0 mm 1 m/S 759 mmHg 83%
04:00 +18°C° 0 mm 1 m/S 759 mmHg 83%
05:00 +18°C° 0 mm 1 m/S 760 mmHg 83%
06:00 +18°C° 0 mm 1 m/S 760 mmHg 83%
07:00 +18°C° 0 mm 1 m/S 760 mmHg 83%
08:00 +19°C° 0 mm 1 m/S 760 mmHg 78%
09:00 +21°C° 0 mm 1 m/S 760 mmHg 73%
10:00 +22°C° 0 mm 1 m/S 760 mmHg 67%
11:00 +23°C° 0 mm 1 m/S 760 mmHg 67%
12:00 +23°C° 0 mm 1 m/S 760 mmHg 67%
13:00 +23°C° 0 mm 2 m/S 760 mmHg 67%
14:00 +21°C° 0.2 mm 2 m/S 760 mmHg 73%
15:00 +20°C° 0.2 mm 2 m/S 760 mmHg 78%
16:00 +20°C° 0.2 mm 2 m/S 760 mmHg 83%
17:00 +19°C° 0.1 mm 2 m/S 760 mmHg 84%
18:00 +19°C° 0.1 mm 2 m/S 760 mmHg 85%
19:00 +18°C° 0.1 mm 2 m/S 760 mmHg 85%
20:00 +18°C° 0 mm 2 m/S 761 mmHg 84%
21:00 +18°C° 0 mm 2 m/S 761 mmHg 83%
22:00 +17°C° 0 mm 2 m/S 761 mmHg 82%
23:00 +17°C° 0 mm 2 m/S 761 mmHg 82%
Mehr zeigen